Weather Roundup
Issued by NWS Chicago, IL

Home | Current Version | Previous Version | Text Only | Print | Product List | Glossary On
Versions: 1 2 3 4 5 6 7 8 9 10 11 12 13 14 15 16 17 18 19 20 21 22 23 24 25 26 27 28 29 30 31 32 33 34 35 36 37 38 39 40 41 42 43 44 45 46 47 48 49 50
000
NZUS59 KLOT 182008
HRRLOT

CHICAGO AREA WEATHER ROUNDUP
NATIONAL WEATHER SERVICE CHICAGO/ROMEOVILLE IL
200 PM CST SUN FEB 18 2018

NOTE: "FAIR" INDICATES FEW OR NO CLOUDS BELOW 12,000 FEET WITH NO
SIGNIFICANT WEATHER AND/OR OBSTRUCTIONS TO VISIBILITY.

* THESE STATIONS ARE NOT UNDER NWS QUALITY CONTROL. THEY ALSO MAY NOT
  REPORT WEATHER SUCH AS PRECIPITATION OR FOG.

ILZ005-006-012>014-019>023-182100-
NORTHEAST ILLINOIS

CITY           SKY/WX    TMP DP  RH WIND       PRES   REMARKS
OHARE          PTSUNNY   35  26  69 S12       30.11F WCI  27
MIDWAY         PTSUNNY   36  27  69 S13       30.14F
AURORA           N/A     34  28  79 SE15      30.10F WCI  24
LANSING*         N/A     35  29  80 SE9G18    30.16F WCI  27
JOLIET*          N/A     37  30  77 SE10      30.13F
WAUKEGAN         N/A     34  28  79 SE12      30.10F WCI  25
DUPAGE AIRPORT   N/A     33  28  81 S14       30.10F HAZE    WCI  23
WHEELING         N/A     36  26  67 S12       30.13F
KANKAKEE*        N/A     35  30  83 SE10      30.15F WCI  27
MORRIS*          N/A     35  29  80 SE15      30.10F WCI  25
LEWIS AIRPORT*   N/A     33  29  85 SE13      30.12F WCI  24
NORTHERLY ISL    N/A     35  26  70 S13         N/A  WCI  26
$$

WIZ051-052-058>065-066-070>072-182100-
SOUTHEAST WISCONSIN

CITY           SKY/WX    TMP DP  RH WIND       PRES   REMARKS
MILWAUKEE      PTSUNNY   38  24  57 S18G28    30.09F
KENOSHA*         N/A     38  24  57 S12       30.09F
RACINE*          N/A     33  27  78 S15G25    30.12F WCI  23
BURLINGTON       N/A     35  23  62 S15       30.07F WCI  25
WAUKESHA       SUNNY     34  21  60 S16       30.08F WCI  23
WEST BEND        N/A     36  21  55 S10G22    30.04F
$$

INZ001>003-010>013-019-020-182100-
NORTHWEST INDIANA

CITY           SKY/WX    TMP DP  RH WIND       PRES   REMARKS
GARY*          PTSUNNY   36  27  69 S15       30.16F
MICHIGAN CITY* NOT AVBL
RENSSELAER*    NOT AVBL
VALPARAISO       N/A     35  28  75 SE13      30.17F WCI  26
$$

LMZ740>746-182100-
SOUTHERN LAKE MICHIGAN

STATION/POSITION TIME  SKY/WX   TEMP WIND        PRES    VSBY
                                AIR  DIR/SP/G
                 (UTC)          (F)  (DEG/KT/KT) (MB)    (MI)
HARRISON CRIB    1940            34  160/ 12/ 15   N/A
BURNHAM HARBOR   2000            36  130/  6/ 14   N/A
CALUMET HARBOR   1948            34  140/ 10/ 15 1020.3F
BURNS HARBOR     1940            34  160/  8/ 18 1022.4F
MICHIGAN CITY    1940            33  150/ 15/ 18   N/A
$$

ABBREVIATIONS USED IN REMARKS
   TC - TEMPERATURE IN CELSIUS
  WCI - WIND CHILL INDEX
   HX - HEAT INDEX
  VSB - VISIBILITY
$$




USA.gov is the U.S. government's official web portal to all federal, state and local government web resources and services.